When you browse on this site, cookies collect data to enhance your experience and personalize the content and advertising you see.
Visit our Privacy Policy to learn more. By continuing to use the site, you agree to this use of cookies and data.
  • In Hungary
  • List of Countries
  • For 7 days
  • Water Temperature
  • Satellite Maps
  • Weather Map
  • News
  • Weather Widgets
  • user-avatar
    Login

    Hourly Weather Prishtina

    Today, 12 December, Wednesday

    Time Temperature Precipitation Wind Pressure Humidity
    00:00 -4°C° 0 mm 1 mps 668 mmHg 73%
    01:00 -4°C° 0 mm 1 mps 668 mmHg 72%
    02:00 -4°C° 0 mm 1 mps 668 mmHg 71%
    03:00 -4°C° 0 mm 1 mps 668 mmHg 70%
    04:00 -4°C° 0 mm 1 mps 668 mmHg 69%
    05:00 -4°C° 0 mm 1 mps 668 mmHg 68%
    06:00 -4°C° 0 mm 1 mps 668 mmHg 67%
    07:00 -4°C° 0 mm 1 mps 669 mmHg 67%
    08:00 -3°C° 0 mm 1 mps 669 mmHg 61%
    09:00 -2°C° 0 mm 1 mps 670 mmHg 56%
    10:00 0°C° 0 mm 1 mps 670 mmHg 51%
    11:00 0°C° 0 mm 1 mps 670 mmHg 48%
    12:00 +1°C° 0 mm 1 mps 670 mmHg 46%
    13:00 +2°C° 0 mm 1 mps 670 mmHg 43%
    14:00 0°C° 0 mm 1 mps 670 mmHg 47%
    15:00 -1°C° 0 mm 1 mps 669 mmHg 51%
    16:00 -2°C° 0 mm 1 mps 669 mmHg 55%
    17:00 -2°C° 0 mm 1 mps 669 mmHg 56%
    18:00 -3°C° 0 mm 1 mps 669 mmHg 57%
    19:00 -4°C° 0 mm 1 mps 670 mmHg 59%
    20:00 -4°C° 0 mm 1 mps 670 mmHg 58%
    21:00 -4°C° 0 mm 1 mps 670 mmHg 58%
    22:00 -4°C° 0 mm 1 mps 670 mmHg 57%
    23:00 -4°C° 0 mm 1 mps 670 mmHg 57%

    Tomorrow, 13 December, Thursday

    Time Temperature Precipitation Wind Pressure Humidity
    00:00 -4°C° 0 mm 1 mps 670 mmHg 57%
    01:00 -4°C° 0 mm 1 mps 670 mmHg 56%
    02:00 -4°C° 0 mm 1 mps 670 mmHg 56%
    03:00 -5°C° 0 mm 0 mps 670 mmHg 57%
    04:00 -6°C° 0 mm 0 mps 670 mmHg 57%
    05:00 -6°C° 0 mm 0 mps 670 mmHg 58%
    06:00 -6°C° 0 mm 0 mps 670 mmHg 59%
    07:00 -6°C° 0 mm 0 mps 669 mmHg 59%
    08:00 -3°C° 0 mm 1 mps 670 mmHg 55%
    09:00 -2°C° 0 mm 1 mps 670 mmHg 51%
    10:00 0°C° 0 mm 1 mps 670 mmHg 47%
    11:00 0°C° 0 mm 1 mps 670 mmHg 46%
    12:00 +1°C° 0 mm 1 mps 670 mmHg 44%
    13:00 +1°C° 0 mm 1 mps 669 mmHg 42%
    14:00 0°C° 0 mm 1 mps 669 mmHg 47%
    15:00 -1°C° 0 mm 1 mps 669 mmHg 51%
    16:00 -2°C° 0 mm 1 mps 668 mmHg 56%
    17:00 -2°C° 0 mm 1 mps 668 mmHg 57%
    18:00 -3°C° 0 mm 1 mps 668 mmHg 58%
    19:00 -3°C° 0 mm 1 mps 669 mmHg 58%
    20:00 -3°C° 0 mm 1 mps 669 mmHg 58%
    21:00 -3°C° 0 mm 1 mps 668 mmHg 58%
    22:00 -3°C° 0 mm 1 mps 668 mmHg 58%
    23:00 -3°C° 0 mm 1 mps 668 mmHg 58%

    Day after tomorrow, 14 December, Friday

    Time Temperature Precipitation Wind Pressure Humidity
    00:00 -3°C° 0 mm 1 mps 668 mmHg 58%
    01:00 -3°C° 0 mm 1 mps 668 mmHg 58%
    02:00 -3°C° 0 mm 1 mps 668 mmHg 58%
    03:00 -3°C° 0 mm 1 mps 668 mmHg 59%
    04:00 -3°C° 0 mm 1 mps 668 mmHg 59%
    05:00 -3°C° 0 mm 1 mps 668 mmHg 61%
    06:00 -2°C° 0 mm 1 mps 668 mmHg 63%
    07:00 -2°C° 0 mm 1 mps 668 mmHg 64%
    08:00 -3°C° 0.1 mm 2 mps 668 mmHg 65%
    09:00 -2°C° 0.1 mm 2 mps 668 mmHg 65%
    10:00 -1°C° 0.1 mm 2 mps 669 mmHg 66%
    11:00 -1°C° 0.2 mm 2 mps 668 mmHg 68%
    12:00 +1°C° 0.2 mm 2 mps 668 mmHg 70%
    13:00 +1°C° 0.2 mm 2 mps 668 mmHg 72%
    14:00 -1°C° 0.3 mm 2 mps 668 mmHg 76%
    15:00 -1°C° 0.3 mm 2 mps 668 mmHg 81%
    16:00 0°C° 0.3 mm 1 mps 668 mmHg 85%
    17:00 0°C° 0.2 mm 1 mps 668 mmHg 86%
    18:00 0°C° 0.2 mm 1 mps 668 mmHg 87%
    19:00 0°C° 0.2 mm 1 mps 668 mmHg 89%
    20:00 0°C° 0.1 mm 1 mps 668 mmHg 89%
    21:00 0°C° 0.1 mm 1 mps 668 mmHg 90%
    22:00 -1°C° 0.1 mm 1 mps 668 mmHg 90%
    23:00 -1°C° 0.1 mm 1 mps 668 mmHg 91%

    15 December, Saturday

    Time Temperature Precipitation Wind Pressure Humidity
    00:00 0°C° 0.1 mm 1 mps 668 mmHg 91%
    01:00 0°C° 0.1 mm 1 mps 668 mmHg 91%
    02:00 0°C° 0.1 mm 1 mps 668 mmHg 91%
    03:00 0°C° 0.1 mm 1 mps 668 mmHg 91%
    04:00 0°C° 0.1 mm 1 mps 667 mmHg 92%
    05:00 0°C° 0.1 mm 1 mps 667 mmHg 91%
    06:00 0°C° 0.1 mm 1 mps 667 mmHg 91%
    07:00 0°C° 0.1 mm 1 mps 667 mmHg 91%
    08:00 +1°C° 0.1 mm 1 mps 668 mmHg 90%
    09:00 +2°C° 0.1 mm 1 mps 668 mmHg 88%
    10:00 +2°C° 0.1 mm 1 mps 668 mmHg 86%
    11:00 +3°C° 0.2 mm 1 mps 668 mmHg 86%
    12:00 +3°C° 0.2 mm 1 mps 668 mmHg 85%
    13:00 +4°C° 0.2 mm 1 mps 668 mmHg 84%
    14:00 +3°C° 0.1 mm 1 mps 668 mmHg 86%
    15:00 +2°C° 0.1 mm 1 mps 667 mmHg 88%
    16:00 +2°C° 0.1 mm 1 mps 667 mmHg 90%
    17:00 +2°C° 0.1 mm 1 mps 667 mmHg 91%
    18:00 +1°C° 0.1 mm 1 mps 668 mmHg 91%
    19:00 +1°C° 0.1 mm 1 mps 668 mmHg 92%
    20:00 +1°C° 0.2 mm 1 mps 668 mmHg 92%
    21:00 +1°C° 0.2 mm 1 mps 668 mmHg 92%
    22:00 +1°C° 0.2 mm 1 mps 668 mmHg 92%
    23:00 -1°C° 0.4 mm 2 mps 668 mmHg 92%

    16 December, Sunday

    Time Temperature Precipitation Wind Pressure Humidity
    00:00 -1°C° 0.4 mm 2 mps 668 mmHg 92%
    01:00 -2°C° 0.4 mm 2 mps 668 mmHg 92%
    02:00 -2°C° 0.8 mm 2 mps 668 mmHg 92%
    03:00 -2°C° 0.8 mm 2 mps 668 mmHg 92%
    04:00 -2°C° 0.8 mm 2 mps 668 mmHg 92%
    05:00 -4°C° 1.2 mm 3 mps 668 mmHg 92%
    06:00 -4°C° 1.2 mm 3 mps 668 mmHg 92%
    07:00 -5°C° 1.2 mm 3 mps 668 mmHg 91%
    08:00 -5°C° 0.8 mm 3 mps 669 mmHg 90%
    09:00 -5°C° 0.8 mm 3 mps 669 mmHg 89%
    10:00 -5°C° 0.8 mm 3 mps 669 mmHg 88%
    11:00 -4°C° 0.2 mm 3 mps 670 mmHg 87%
    12:00 -4°C° 0.2 mm 3 mps 670 mmHg 86%
    13:00 -4°C° 0.2 mm 3 mps 670 mmHg 85%
    14:00 -4°C° 0 mm 3 mps 670 mmHg 86%
    15:00 -4°C° 0 mm 2 mps 670 mmHg 87%
    16:00 -4°C° 0 mm 2 mps 671 mmHg 88%
    17:00 -4°C° 0 mm 2 mps 671 mmHg 88%
    18:00 -5°C° 0 mm 2 mps 671 mmHg 89%
    19:00 -5°C° 0 mm 2 mps 672 mmHg 89%
    20:00 -5°C° 0 mm 2 mps 672 mmHg 89%
    21:00 -4°C° 0 mm 1 mps 672 mmHg 89%
    22:00 -4°C° 0 mm 1 mps 672 mmHg 89%
    23:00 -4°C° 0 mm 1 mps 672 mmHg 88%

    17 December, Monday

    Time Temperature Precipitation Wind Pressure Humidity
    00:00 -4°C° 0 mm 1 mps 672 mmHg 88%
    01:00 -4°C° 0 mm 1 mps 672 mmHg 87%
    02:00 -4°C° 0 mm 1 mps 672 mmHg 86%
    03:00 -4°C° 0 mm 1 mps 672 mmHg 85%
    04:00 -3°C° 0 mm 1 mps 672 mmHg 85%
    05:00 -3°C° 0 mm 1 mps 672 mmHg 84%
    06:00 -3°C° 0 mm 1 mps 672 mmHg 83%
    07:00 -3°C° 0 mm 1 mps 672 mmHg 83%
    08:00 -1°C° 0 mm 1 mps 672 mmHg 83%
    09:00 0°C° 0 mm 1 mps 673 mmHg 83%
    10:00 +2°C° 0 mm 1 mps 673 mmHg 83%
    11:00 +3°C° 0 mm 1 mps 673 mmHg 84%
    12:00 +3°C° 0 mm 1 mps 672 mmHg 84%
    13:00 +4°C° 0 mm 1 mps 672 mmHg 85%
    14:00 +3°C° 0 mm 1 mps 672 mmHg 86%
    15:00 +1°C° 0 mm 2 mps 672 mmHg 87%
    16:00 +1°C° 0 mm 2 mps 672 mmHg 88%
    17:00 -1°C° 0 mm 2 mps 672 mmHg 86%
    18:00 -1°C° 0 mm 2 mps 672 mmHg 84%
    19:00 -1°C° 0 mm 2 mps 672 mmHg 82%
    20:00 -1°C° 0 mm 2 mps 672 mmHg 81%
    21:00 -1°C° 0 mm 2 mps 672 mmHg 80%
    22:00 -1°C° 0 mm 2 mps 672 mmHg 79%
    23:00 -1°C° 0 mm 2 mps 672 mmHg 79%
    Show more